Location: Unspecified
(42.3650°N, 71.1030°W)
Time: 16:30:43
(UTC+00:00)

Lacrosse 4 Rocket - Pass Details

Date: 02 March 2024
Orbit: 532 x 593 km, 68.0° (Epoch: 19 April)

Event Time Altitude Azimuth Distance (km) Brightness Sun altitude
Rises 23:23:10 0° 342° (NNW) 2,703 5.1 -9.5°
Reaches altitude 10° 23:25:46 10° 358° (N) 1,800 4.0 -10.0°
Maximum altitude 23:28:57 22° 51° (NE) 1,195 2.6 -10.5°
Enters shadow 23:30:55 16° 89° (E) 1,450 2.8 -10.9°
